DW1482 Weather Reports


Display with metric or nautical units.
time (UTC)temp
F
wind
direction
speed
MPH
gust
MPH
rain 1hr
in
rain 24hr
in
rain mn
in
humidity
%
barometer
mb
20260901201508 76 68 0.0 3.0 0.00 0.00 0.00 64 1014.6
20260901200027 77 67 1.0 4.0 0.00 0.00 0.00 62 1014.3
20260901194504 77 51 0.0 5.0 0.00 0.00 0.00 63 1014.2
20260901193005 76 80 0.0 3.0 0.00 0.00 0.00 62 1014.2
20260901191519 76 72 0.0 4.0 0.00 0.00 0.00 61 1014.4
20260901190022 76 74 0.0 3.0 0.00 0.00 0.00 62 1014.6
20260901184504 75 50 2.0 7.0 0.00 0.00 0.00 57 1014.4
20260901183006 76 111 0.0 4.0 0.00 0.00 0.00 59 1014.6
20260901181519 75 99 0.0 6.0 0.00 0.00 0.00 57 1014.7
20260901180020 75 80 2.0 9.0 0.00 0.00 0.00 58 1014.5
20260901174504 75 101 1.0 7.0 0.00 0.00 0.00 57 1014.3
20260901173009 76 119 1.0 7.0 0.00 0.00 0.00 57 1014.5
20260901171515 75 149 1.0 6.0 0.00 0.00 0.00 56 1014.7
20260901170019 75 88 0.0 6.0 0.00 0.00 0.00 58 1015.1
20260901164528 74 93 0.0 6.0 0.00 0.00 0.00 57 1015.1
20260901163009 74 97 1.0 4.0 0.00 0.00 0.00 54 1015.2
20260901161525 73 17 0.0 3.0 0.00 0.00 0.00 63 1015.2
20260901160021 71 17 0.0 2.0 0.00 0.00 0.00 62 1015.2
20260901154533 70 17 0.0 3.0 0.00 0.00 0.00 64 1015.2
20260901153018 69 17 0.0 3.0 0.00 0.00 0.00 65 1015.1
20260901151533 68 17 0.0 3.0 0.00 0.00 0.00 68 1015.1
20260901150035 67 17 0.0 3.0 0.00 0.00 0.00 71 1015.1
20260901144538 66 17 0.0 3.0 0.00 0.00 0.00 68 1015.1
20260901143012 66 17 0.0 3.0 0.00 0.00 0.00 69 1015.3
20260901141520 66 12 0.0 2.0 0.00 0.00 0.00 67 1015.2
20260901140029 67 12 0.0 1.0 0.00 0.00 0.00 64 1015.4
20260901134530 65 12 0.0 2.0 0.00 0.00 0.00 71 1015.5
20260901133013 62 12 1.0 3.0 0.00 0.00 0.00 80 1015.1
20260901131508 57 12 0.0 0.0 0.00 0.00 0.00 91 1015.3
20260901130004 55 12 0.0 0.0 0.00 0.00 0.00 91 1015.2
20260901124507 54 12 0.0 0.0 0.00 0.00 0.00 91 1015.4
20260901123017 54 12 0.0 0.0 0.00 0.00 0.00 90 1015.3
20260901121523 53 12 0.0 0.0 0.00 0.00 0.00 89 1015.3
20260901120012 54 12 0.0 0.0 0.00 0.00 0.00 89 1015.2
20260901114509 54 12 0.0 0.0 0.00 0.00 0.00 89 1015.1
20260901113018 55 12 0.0 0.0 0.00 0.00 0.00 88 1015.2
20260901111526 55 12 0.0 0.0 0.00 0.00 0.00 87 1014.9
20260901110009 55 12 0.0 0.0 0.00 0.00 0.00 86 1014.7
20260901104514 56 12 0.0 0.0 0.00 0.00 0.00 85 1014.9
20260901103018 55 12 1.0 3.0 0.00 0.00 0.00 87 1014.6
20260901101549 56 273 0.0 0.0 0.00 0.00 0.00 85 1014.0
20260901100006 56 273 0.0 0.0 0.00 0.00 0.00 83 1014.0
20260901094527 57 273 0.0 0.0 0.00 0.00 0.00 82 1013.9
20260901093023 58 273 0.0 0.0 0.00 0.00 0.00 81 1013.9
20260901091544 59 273 0.0 0.0 0.00 0.00 0.00 78 1013.8
20260901090008 61 273 0.0 0.0 0.00 0.00 0.00 74 1013.5
20260901084532 62 273 0.0 0.0 0.00 0.00 0.00 71 1013.4
20260901083025 62 273 0.0 1.0 0.00 0.00 0.00 71 1013.3
20260901081527 62 273 0.0 3.0 0.00 0.00 0.00 72 1013.3
20260901080025 61 261 0.0 3.0 0.00 0.00 0.00 76 1013.6
20260901074518 61 225 0.0 0.0 0.00 0.00 0.00 79 1013.9
20260901073030 61 225 0.0 0.0 0.00 0.00 0.00 83 1013.9
20260901071529 61 225 0.0 0.0 0.00 0.00 0.00 84 1014.0
20260901070002 62 225 0.0 0.0 0.00 0.00 0.00 84 1014.0
20260901064502 62 225 0.0 0.0 0.00 0.00 0.00 83 1014.2
20260901063004 63 225 0.0 0.0 0.00 0.00 0.00 82 1014.1
20260901061508 64 225 0.0 0.0 0.00 0.08 0.00 82 1014.2
20260901060016 64 225 0.0 1.0 0.00 0.08 0.00 82 1014.1
20260901054503 64 225 0.0 2.0 0.00 0.08 0.00 82 1014.2
20260901053003 65 225 0.0 2.0 0.00 0.08 0.00 81 1014.3
20260901051509 66 225 0.0 0.0 0.00 0.08 0.00 79 1014.1
20260901050003 66 225 0.0 0.0 0.00 0.08 0.00 79 1014.1
20260901044506 67 225 0.0 0.0 0.00 0.08 0.08 80 1013.8
20260901043020 67 225 0.0 0.0 0.00 0.08 0.08 79 1013.8
20260901041516 68 225 0.0 0.0 0.00 0.08 0.08 79 1013.9
20260901040019 68 225 0.0 0.0 0.00 0.08 0.08 78 1013.7
20260901034504 68 225 0.0 0.0 0.00 0.08 0.08 78 1013.7
20260901033008 68 225 0.0 0.0 0.00 0.08 0.08 78 1013.5
20260901031517 69 225 0.0 0.0 0.00 0.08 0.08 78 1013.4
20260901030023 69 225 0.0 0.0 0.00 0.08 0.08 76 1013.1
20260901024504 69 225 0.0 0.0 0.00 0.08 0.08 75 1013.0
20260901023010 70 225 0.0 0.0 0.00 0.08 0.08 74 1012.8
20260901021516 70 225 0.0 0.0 0.00 0.08 0.08 74 1012.7
20260901020020 71 225 0.0 1.0 0.00 0.08 0.08 72 1012.5
20260901014505 72 225 0.0 2.0 0.00 0.08 0.08 70 1012.3
20260901013010 73 225 0.0 2.0 0.00 0.08 0.08 68 1012.0
20260901011524 75 225 0.0 5.0 0.00 0.08 0.08 66 1012.0
20260901010026 76 242 0.0 2.0 0.00 0.08 0.08 62 1011.9
20260901004504 78 242 0.0 0.0 0.00 0.08 0.08 58 1012.0
20260901003010 79 242 0.0 3.0 0.00 0.08 0.08 56 1012.1
20260901001520 80 244 1.0 4.0 0.00 0.08 0.08 52 1012.0
20260901000027 81 229 0.0 2.0 0.00 0.08 0.08 51 1012.0
20260831234509 82 146 0.0 3.0 0.00 0.08 0.08 50 1012.0
20260831233013 82 143 0.0 3.0 0.00 0.08 0.08 49 1012.0
20260831231530 83 155 0.0 5.0 0.00 0.08 0.08 46 1012.0
20260831230031 84 202 0.0 5.0 0.00 0.08 0.08 45 1012.1
20260831224547 84 157 0.0 7.0 0.00 0.08 0.08 47 1012.1
20260831223016 85 248 1.0 7.0 0.00 0.08 0.08 47 1012.1
20260831221523 85 237 2.0 10.0 0.00 0.08 0.08 41 1012.0
20260831220027 85 280 4.0 9.0 0.00 0.08 0.08 37 1012.0
20260831214536 85 262 5.0 11.0 0.00 0.08 0.08 38 1012.1
20260831213010 85 254 5.0 12.0 0.00 0.08 0.08 35 1012.2
20260831211504 84 254 4.0 9.0 0.00 0.08 0.08 37 1012.2
20260831210009 84 250 5.0 10.0 0.00 0.08 0.08 39 1012.4
20260831204515 84 263 3.0 9.0 0.00 0.08 0.08 38 1012.5
20260831203026 83 269 5.0 10.0 0.00 0.08 0.08 40 1012.7